Location: Gorlice
(49.6633°N, 21.1693°E)
Time: 06:30:34
(UTC+02:00)

ISS - Pass Details

Date: 25 January 2019
Orbit: 411 x 421 km, 51.6° (Epoch: 16 October)

Event Time Altitude Azimuth Distance (km) Brightness Sun altitude
Rises 16:43:17 0° 198° (SSW) 2,357 0.7 -4.4°
Reaches altitude 10° 16:46:02 10° 173° (S) 1,500 -0.7 -4.9°
Maximum altitude 16:48:00 15° 138° (SE) 1,248 -1.5 -5.1°
Drops below altitude 10° 16:49:58 10° 102° (ESE) 1,507 -1.4 -5.4°
Enters shadow 16:51:11 - 88° (E) 1,848 -1.1 -5.6°
